www.pogodaiklimat.ru

Погода и климат >> Архив погоды >> Россия >> Эвенкия >> Тура


ПОГОДА в Туре

АРХИВ ПОГОДЫ в Туре

Время (UTC), дата Ветер
(напр.,м/с)
 
Видим.   Явления Облачность Т
(С)
Тd
(С)
f
(%)
Тe
(С)
Тes
(С)
Комфортность P
(гПа)
Po
(гПа)
Тmin
(С)
Tmax
(С)
R
(мм)
S
(см)
06 17.03 З 4 20 км 6/0
[Ac lent Ci fib]
-3.4 -11.8 52 -9 -7 1021.2 996.9
09 17.03 З 4
{10}
20 км 8/3 1000 м
[Cu hum Ac lent Ci fib]
-3.0 -11.1 54 -8 -8 1022.0 997.6
12 17.03 З 3 20 км 10/8 1000 м
[Sc Ac trans]
-3.5 -11.5 54 -8 -8 1022.8 998.4 -2.3
15 17.03 ЮЗ 2 н/о 8/3 1000 м
[Sc Ac trans]
-5.9 -12.2 61 -10 -10 1023.5 998.8
18 17.03 З 1 н/о 8/3 1000 м
[Sc Ac trans]
-6.6 -13.2 59 -9 -9 1023.6 998.9
21 17.03 З 3 н/о 6/6 1000 м
[Sc]
-6.7 -11.8 67 -12 -12 1023.7 998.9
00 18.03 З 2 20 км 9/9 1000 м
[Sc]
-7.0 -11.3 71 -11 -11 1023.9 999.1 -7.5 41
03 18.03 ЮЗ 4 20 км 9/8 1000 м
[Cu Sc Ci sp]
-4.6 -9.8 67 -11 -10 1023.8 999.3
06 18.03 ЮЗ 4 20 км 9/8 600 м
[Cb cap Ci fib]
-1.7 -8.2 61 -7 -7 1023.7 999.5
09 18.03 З 5 20 км 9/6 600 м
[Cb cap Ci sp]
-1.9 -8.1 63 -8 -8 1024.4 1000.1
12 18.03 З 3 20 км 10/10 600 м
[Cb cap]
-2.3 -7.8 66 -7 -7 1025.7 1001.4 -1.3
15 18.03 З 2 н/о слабый ливневой снег 10/10 600 м
[Cb cap]
-3.9 -6.1 85 -8 -8 1026.8 1002.3
18 18.03 СЗ 1 н/о {ливн. осадки} 6/3 600 м
[Cb cap Ci fib]
-5.7 -7.2 89 -8 -8 1027.9 1003.2
21 18.03 СЗ 1 н/о {ливн. осадки} 4/0
[Ac trans Ci fib]
-7.8 -8.8 93 -10 -10 1029.2 1004.2
00 19.03 штиль 0 20 км {ливн. осадки} 10/10 600 м
[Cb cap]
-11.3 -12.6 90 -11 -11 1031.1 1005.8 -12.2 0.0 41
03 19.03 штиль 0 20 км 1/1 1000 м
[Cu hum]
-7.1 -10.9 74 -8 -4 1031.5 1006.6
06 19.03 штиль 0 20 км 1/1 1000 м
[Cu hum]
+1.2 -7.8 51 +1 +6 1030.4 1006.3
09 19.03 ЮЗ 2 20 км ясно +1.4 -6.7 55 -1 0 1030.2 1006.1
12 19.03 СЗ 1 20 км ясно -2.4 -8.0 65 -4 -4 1031.3 1006.9 +1.9
15 19.03 С 2 н/о ясно -8.6 -11.0 83 -13 -13 1032.3 1007.3
18 19.03 СЗ 1 н/о ясно -12.7 -14.0 90 -15 -15 1033.4 1007.8
21 19.03 ЮВ 3 н/о 8/0
[Ac trans Ci fib]
-14.8 -16.1 90 -21 -21 1033.9 1008.1
00 20.03 штиль 0 20 км 10/10 600 м
[Cb cap]
-14.8 -16.1 90 -15 -15 1034.1 1008.3 -16.8 41
03 20.03 ЮВ 1 20 км {ливн. осадки} 10/10 600 м
[Cb cap]
-11.0 -13.8 80 -13 -13 1034.6 1009.2
06 20.03 ЮВ 3 20 км {ливн. осадки} 8/5 1000 м
[Cu Sc Ci fib]
-5.0 -10.4 66 -10 -9 1033.1 1008.3
09 20.03 В 4 20 км 8/8 1000 м
[Cu Sc]
-0.4 -7.0 61 -5 -5 1032.0 1007.6
12 20.03 В 2 20 км 4/4 1000 м
[Sc]
-2.5 -8.5 63 -6 -6 1032.4 1007.9 +0.1 0.0
15 20.03 штиль 0 н/о 3/0
[Ac trans]
-9.6 -11.7 85 -10 -10 1033.3 1008.1
18 20.03 ЮВ 1 н/о слабый ливневой снег 10/10 600 м
[Cb cap]
-11.6 -12.9 90 -14 -14 1033.9 1008.5
21 20.03 В 2 н/о слабый ливневой снег 10/10 600 м
[Cb cap]
-10.0 -11.3 90 -15 -15 1033.6 1008.3
00 21.03 ЮВ 1 20 км слабый ливневой снег 10/8 600 м
[Cb cap Ac trans]
-10.5 -12.5 85 -13 -13 1033.3 1008.0 -11.9 0.0 41
03 21.03 Ю 2 20 км слабый ливневой снег 10/10 600 м
[Cb cap]
-9.0 -11.5 82 -13 -13 1033.2 1008.0
06 21.03 ЮВ 2 20 км {ливн. осадки} 6/3 1000 м
[Sc Ac trans Ci fib]
-3.6 -8.8 67 -7 -5 1030.5 1006.0
09 21.03 ЮЗ 2 20 км 8/3 1000 м
[Sc Ac trans Ci fib]
+2.9 -6.2 51 +1 +1 1028.4 1004.4
12 21.03 З 2 20 км 8/0
[Ac trans Ci fib]
+0.6 -6.3 60 -2 -2 1027.9 1003.8 +5.1 0.0
15 21.03 штиль 0 н/о 8/3 1000 м
[Sc Ac trans]
-5.2 -9.7 71 -6 -6 1028.2 1003.5
18 21.03 штиль 0 н/о 6/3 1000 м
[Sc Ac trans]
-6.8 -9.7 80 -8 -8 1027.9 1003.0
21 21.03 Ю 1 н/о 6/6 1000 м
[Sc]
-8.5 -10.9 83 -11 -11 1028.0 1003.0
00 22.03 С 1 20 км 8/6 1000 м
[Sc Ci fib]
-10.5 -11.8 90 -13 -13 1028.7 1003.5 -10.9 40
03 22.03 СЗ 1 20 км 8/0
[Ac trans Ci fib]
-5.1 -8.8 75 -7 -5 1028.4 1003.7
06 22.03 З 1 20 км 6/0
[Ac trans Ci fib]
+1.6 -7.6 50 +1 +5 1027.1 1003.0
09 22.03 ЮВ 1 20 км 8/1 1000 м
[Cu hum Ci sp]
+4.0 -7.7 42 +3 +5 1026.2 1002.4
12 22.03 З 2 20 км 8/0
[Ac cast Ci fib]
+0.1 -9.7 48 -3 -3 1026.8 1002.6 +5.2
15 22.03 С 2 н/о 4/0
[Ci fib]
-7.2 -12.0 69 -11 -11 1027.9 1003.0
18 22.03 З 1 н/о 4/0
[Ci fib]
-10.8 -13.6 80 -13 -13 1028.1 1002.8
21 22.03 штиль 0 н/о 3/0
[Ci fib]
-16.6 -18.5 85 -17 -17 1028.7 1002.8
00 23.03 штиль 0 20 км 8/0
[Ac trans Ci fib]
-18.4 -19.6 90 -18 -18 1028.6 1002.6 -18.5 40
03 23.03 штиль 0 20 км 10/0
[Ci fib]
-10.8 -15.2 70 -11 -7 1026.4 1001.3
06 23.03 Ю 2 20 км 10/10 600 м
[Cb cap]
-4.6 -11.7 58 -8 -8 1023.4 998.9
09 23.03 ЮВ 2 10 км слабый ливневой снег 10/10 600 м
[Cb cap]
-1.1 -5.0 75 -5 -5 1022.0 997.8
12 23.03 штиль 0 20 км {ливн. осадки} 10/10 600 м
[Cb cap]
-1.5 -6.7 68 -2 -2 1021.7 997.5 -0.5 0.0
15 23.03 СЗ 1 н/о 4/0
[Ac trans]
-5.7 -8.7 79 -8 -8 1021.6 997.2
18 23.03 СЗ 1 н/о 6/0
[Ac trans Ci fib]
-10.0 -12.8 80 -12 -12 1022.3 997.4
21 23.03 СЗ 1 н/о 3/0
[Ci fib]
-12.9 -15.6 80 -15 -15 1023.3 998.0
00 24.03 СЗ 1 20 км 8/0
[Ac lent Ci fib]
-15.4 -17.3 85 -18 -18 1025.0 999.5 -16.4 39
03 24.03 С 1 20 км 3/3 1000 м
[Sc]
-8.3 -12.5 72 -11 -8 1024.2 999.3 -16.7

 

Местоположение метеостанции Тура (Эвенкия, Россия): широта 64.33 долгота 100.40 высота над уровнем моря 624 м.

В архиве по умолчанию представлена погода в Туре за последнюю неделю. Архивные данные за месяц целиком и за предыдущие месяцы, начиная с января 2011 года, Вы можете получить, выбрав интересующий диапазон дат из раскрывающегося списка и нажав кнопку "Ввод!".

Внимание! Время в таблицах - всемирное. Для получения местного времени необходимо прибавить поправку, которая в Туре равна 7 ч.

Смотрите также архив погоды в соседних городах и на ближайших метеорологических станциях:

Погода в Тембенчи (Эвенкия, Россия) (99 км)
Погода в Кербо (Эвенкия, Россия) (182 км)
Погода в Кислокане (Эвенкия, Россия) (190 км)
Погода в Стрелке-Чуне (Эвенкия, Россия) (311 км)
Погода в Тутончанах (Эвенкия, Россия) (320 км)
Погода в Муторае (Эвенкия, Россия) (334 км)
Погода в Байките (Эвенкия, Россия) (359 км)
Погода в Агате (Эвенкия, Россия) (426 км)
Погода в Усть-Камо (Эвенкия, Россия) (428 км)
Погода в Ванаваре (Эвенкия, Россия) (456 км)

Пояснения к столбцам:

Ветер - указаны скорость ветра в м/с - средняя за 10 мин, порывы в срок и между сроками (в фигурных скобках) и направление, откуда дует ветер: С - северный, СВ - северо-восточный, В - восточный, ЮВ - юго-восточный, Ю - южный, ЮЗ - юго-западный, З - западный, СЗ - северо-западный.
Видимость - горизонтальная дальность видимости в метрах или километрах. При видимости от 1 до 10 км при отсутствии осадков обычно наблюдается дымка, при ухудшении видимости до 1 км и менее - туман. В сухую погоду видимость может ухудшаться дымом, пылью или мглою.
Явления - указаны атмосферные явления, наблюдавшиеся в срок или в последний час перед сроком; фигурными скобками обозначены явления, наблюдавшиеся между сроками (за 1-3 часа до срока); квадратными скобками обозначены град или гололедные отложения с указанием их диаметра в мм.
Облачность - указаны через наклонную черту общая и нижняя облачность в баллах и высота нижней границы облаков в метрах; квадратными скобками обозначены формы облаков: Ci - перистые, Cs - перисто-слоистые, Cc - перисто-кучевые, Ac - высококучевые, As - высокослоистые, Sc - слоисто-кучевые, Ns - слоисто-дождевые, Cu - кучевые, Cb - кучево-дождевые. Подробнее классификацию облаков см. в Атласе облаков (PDF).
T - Температура воздуха - температура, измеренная на высоте 2 м над землей.
Td - Температура точки росы - температура, при понижении до которой содержащийся в воздухе водяной пар достигнет насыщения.
f - Относительная влажность воздуха - влажноcть воздуха, измеренная на высоте 2 м над землей.
Te - Эффективная температура - температура, которую ощущает одетый по сезону человек в тени. Характеристика душности погоды. При расчете учитывается влияние влажности воздуха и скорости ветра на теплоощущения человека.
Tes - Эффективная температура на солнце - температура, которую ощущает человек, с поправкой на солнечный нагрев. Характеристика знойности погоды. Зависит от высоты солнца над горизонтом, облачности и скорости ветра. Ночью, в пасмурную погоду, а также при ветре 12 м/с и более поправка равна нулю.
P - Атмосферное давление - приведенное к уровню моря атмосферное давление.
Po - Атмосферное давление - измеренное на уровне метеостанции атмосферное давление.
Tmin - Минимальная температура - минимум температуры воздуха на высоте 2 м над землей.
Tmax - Максимальная температура - максимум температуры воздуха на высоте 2 м над землей.
R - Количество осадков - Количество выпавших осадков, мм. При наведении курсора мыши на число - период времени, за который выпало указанное количество осадков.
S - Снежный покров - Высота снежного покрова, см. При наведении курсора мыши на число - состояние снежного покрова и степень покрытия местности в баллах.